Location: La Tine
(46.4708°N, 7.0525°E)
Time: 07:48:14
(UTC+00:00)

Cosmos 1833 Rocket - Pass Details

Date: 19 January 2021
Orbit: 833 x 839 km, 71.0° (Epoch: 24 February)

Event Time Altitude Azimuth Distance (km) Brightness Sun altitude
Rises 19:48:10 0° 332° (NNW) 3,391 6.3 -35.9°
Reaches altitude 10° 19:50:37 10° 332° (NNW) 2,454 5.4 -36.3°
Enters shadow 19:52:19 21° 332° (NNW) 1,819 4.7 -36.6°
